Temperature
29 26 25 25 26 27 26 26 26 27 27 26 25 25 25 25 25 24 24 23 23 23 23 23 22 22 22 21 21 21 20 20 20 20 20 20 19 19 19 19 19 19 19 19
26 26 27 28 28 28 27 26 26 27 27 26 25 24 24 25 24 24 24 23 23 23 23 23 22 22 22 21 21 21 20 20 20 20 20 20 19 19 19 19 19 19 19 19
26 27 29 30 29 28 27 27 26 26 26 26 25 24 24 24 24 24 24 24 24 23 23 23 22 22 22 22 21 21 21 20 20 20 20 19 19 19 19 19 19 19 19 19
27 28 30 29 29 28 27 28 28 27 25 24 25 23 23 23 23 24 24 24 24 24 23 23 23 22 22 22 22 21 21 20 20 20 20 20 20 19 20 19 19 19 19 19
27 29 29 29 29 29 28 29 28 27 25 23 23 23 22 22 22 23 23 24 24 24 23 23 23 23 22 22 22 21 21 21 20 20 20 20 20 20 20 19 19 19 19 19
28 29 29 30 30 30 29 27 26 24 22 23 24 23 23 22 23 23 23 24 24 23 23 23 23 23 22 22 22 21 21 21 21 20 20 20 20 20 19 19 19 19 19 19
27 28 29 30 29 29 28 24 23 23 22 22 23 23 22 24 24 24 24 24 24 23 23 23 23 22 22 22 22 22 21 21 20 20 20 20 20 20 20 19 19 19 19 19
26 26 28 29 29 27 27 24 23 24 23 22 23 23 23 24 25 25 24 24 23 23 23 23 23 22 22 22 22 22 21 21 21 20 20 20 20 20 20 19 19 19 19 19
25 26 28 30 30 28 27 25 23 22 23 22 22 23 24 24 24 23 23 23 23 23 23 23 23 22 22 22 22 22 21 21 21 20 20 20 20 20 20 19 19 19 19 19
26 26 27 29 29 28 27 25 22 22 22 23 23 23 22 23 23 22 22 22 23 23 23 23 23 23 22 22 22 21 21 21 21 21 20 20 20 20 19 19 19 19 19 19
26 25 26 27 27 27 27 26 23 21 21 21 22 22 24 23 22 22 22 22 23 23 23 23 22 22 22 22 21 21 21 21 21 20 20 20 20 20 20 19 19 19 19 19
25 23 23 25 26 28 27 26 23 23 22 20 21 22 24 23 23 22 22 22 23 23 23 23 22 22 22 21 21 21 21 21 20 20 20 19 19 19 19 19 19 19 18 18
25 22 22 23 24 26 26 26 24 21 20 20 21 22 23 22 22 23 23 23 23 23 23 22 22 22 21 21 21 21 21 20 20 20 20 19 19 19 19 19 18 18 18 18
25 21 22 23 23 24 26 26 25 23 21 21 21 22 22 22 22 22 23 23 23 23 23 22 22 21 22 21 21 21 21 20 20 20 20 19 19 19 19 18 18 18 18 18
22 22 23 23 24 25 26 26 26 24 23 22 22 22 22 21 22 22 23 23 22 22 22 22 22 21 21 21 21 21 20 20 20 20 19 19 19 19 18 18 18 17 17 17
20 22 23 24 25 25 25 26 26 25 25 23 22 22 22 22 23 22 22 22 22 22 22 22 22 21 21 21 21 21 20 20 20 19 19 19 19 18 18 18 17 17 17 17
20 21 21 21 23 24 23 24 25 24 24 23 22 22 22 21 21 22 22 22 22 22 22 21 21 21 21 21 21 20 20 20 20 19 19 18 18 18 18 17 17 17 16 16
20 19 18 20 22 23 22 23 24 24 23 23 22 22 22 22 23 23 23 23 22 22 22 21 21 21 21 21 20 20 20 19 19 19 18 18 18 17 17 17 17 16 16 16
19 19 18 18 20 21 22 23 24 23 22 22 22 22 22 22 22 22 23 23 23 23 22 22 21 21 21 20 20 20 19 19 19 18 18 18 17 17 17 16 16 16 16 16
19 18 18 18 21 21 21 23 24 23 21 22 21 21 21 21 19 19 22 22 22 22 22 21 21 21 20 20 19 19 19 18 18 18 18 17 17 17 16 16 16 15 15 15
19 19 18 18 19 20 21 23 23 21 20 22 22 21 21 20 20 21 22 22 21 21 21 21 21 20 20 19 19 19 18 18 18 18 17 17 17 16 16 16 15 15 15 15
18 18 18 17 19 19 21 22 20 20 21 22 22 21 21 21 21 21 21 21 21 20 20 20 20 20 19 19 18 18 18 18 17 17 17 17 16 16 15 15 15 15 14 14
17 17 16 17 18 19 21 21 22 22 22 22 21 21 22 21 21 20 20 20 20 20 20 20 20 19 18 18 18 18 17 17 17 16 16 16 16 15 15 15 15 14 14 14
18 17 16 16 17 19 21 21 21 22 22 22 21 21 21 21 20 20 20 20 20 19 19 19 19 18 18 18 17 17 17 17 16 16 16 15 15 15 15 14 14 14 14 13
18 17 16 16 17 18 20 20 21 21 21 21 21 21 21 20 20 20 19 19 19 19 18 18 18 18 18 17 17 17 16 16 16 16 15 15 15 14 14 14 14 14 13 13
16 16 16 15 17 16 18 20 20 20 20 20 20 20 19 20 19 19 19 18 18 18 18 18 17 17 17 17 17 16 16 16 16 16 15 15 14 14 14 14 13 13 13 13
Wind_Speed
2 2 4 8 8 8 6 4 4 4 2 3 4 6 10 10 10 12 11 11 11 11 11 12 13 13 12 10 10 10 9 8 6 4 3 3 2 2 2 3 5 6 5 5
4 5 12 8 6 4 2 2 2 2 1 3 2 3 6 8 10 11 12 12 12 9 9 11 12 13 12 12 11 10 10 9 7 5 4 3 3 3 3 3 4 6 6 5
8 10 8 5 3 3 2 2 3 2 0 1 3 2 4 4 4 6 9 10 10 13 13 13 13 12 12 12 12 11 9 9 8 6 3 2 1 0 1 1 2 4 6 5
7 8 5 4 4 3 3 4 3 3 2 2 3 3 5 5 4 6 8 9 9 11 11 12 13 12 13 12 11 9 9 8 7 7 6 5 4 4 4 3 3 3 4 4
7 5 4 4 6 4 5 3 3 3 2 1 1 3 5 3 6 9 9 10 10 10 12 12 12 12 11 11 11 10 9 9 8 7 8 7 5 4 2 2 2 2 2 3
9 6 5 6 6 4 3 3 4 4 4 2 4 3 4 4 9 9 9 10 10 10 11 10 9 8 8 8 9 9 8 8 8 8 7 7 7 5 3 3 3 2 2 2
7 7 5 3 1 3 4 6 4 4 4 5 3 2 6 6 8 9 10 10 9 10 10 9 8 8 7 8 9 9 8 7 7 7 7 7 7 6 5 4 4 3 2 2
3 7 6 3 5 5 3 9 7 5 4 4 3 2 5 4 5 5 5 7 8 9 9 9 10 10 9 9 8 9 8 7 7 7 6 5 5 4 4 4 3 3 3 3
5 7 6 5 4 6 3 4 9 7 3 1 2 2 4 2 3 5 6 8 9 9 9 9 9 9 9 8 7 8 8 6 6 6 5 4 5 4 4 3 3 3 2 2
8 4 6 5 2 1 6 6 6 5 4 2 2 3 4 4 3 5 7 8 9 8 8 9 8 8 8 8 7 6 6 7 6 5 5 5 4 3 3 3 3 3 2 2
6 5 6 3 2 4 1 2 5 5 6 6 3 6 6 9 9 9 9 9 9 9 9 8 8 7 7 7 8 7 6 5 5 5 5 4 3 3 2 3 3 3 2 2
4 6 3 7 7 5 5 5 6 4 3 4 4 6 4 7 8 9 9 9 8 8 7 8 8 7 6 6 7 7 6 5 5 5 4 4 3 2 2 3 3 2 2 2
4 6 1 7 7 5 1 1 4 6 5 4 4 5 1 3 4 6 8 8 7 7 6 6 7 8 8 7 7 7 6 6 5 5 5 4 3 3 2 2 2 2 2 1
4 5 7 8 8 4 3 3 1 5 4 4 6 6 3 4 5 5 6 8 8 7 8 8 7 7 7 7 7 7 6 6 7 6 6 5 5 4 3 2 2 1 2 2
5 3 3 5 4 2 1 2 1 2 6 7 7 8 9 9 9 8 8 8 8 7 7 7 7 7 6 5 6 6 6 6 6 6 5 5 5 4 3 2 2 1 1 2
4 3 2 3 2 2 2 3 1 1 2 4 5 4 6 6 6 7 8 10 9 9 9 8 7 7 7 6 6 6 6 6 6 6 5 4 4 3 3 2 2 1 1 1
1 4 3 2 4 4 3 3 2 1 1 5 5 6 5 5 7 10 10 10 11 11 11 11 10 9 9 8 7 7 6 5 5 5 4 4 4 3 3 2 2 1 1 0
5 4 4 2 2 3 7 4 3 4 1 1 3 5 9 9 8 7 9 10 10 10 10 10 9 8 8 7 6 6 5 6 5 5 4 3 3 3 3 2 2 2 2 2
6 7 5 4 3 4 5 4 1 3 2 2 2 4 4 4 4 0 4 8 9 9 8 8 9 8 7 7 7 6 5 5 5 5 4 4 4 3 3 3 3 2 2 2
4 6 6 4 4 6 7 6 2 5 2 4 2 4 5 5 2 4 4 5 6 6 7 6 7 7 7 6 7 8 6 6 6 5 5 4 4 4 3 3 2 2 2 2
3 3 4 4 4 5 6 5 2 3 5 3 2 3 4 3 5 5 4 4 5 6 6 7 8 7 7 6 7 7 6 6 5 5 4 4 4 4 4 3 2 2 1 1
3 2 3 4 3 6 5 2 4 5 3 2 4 4 4 3 4 5 5 5 5 5 5 6 6 6 5 6 7 6 5 4 4 4 4 4 3 3 3 2 2 1 2 1
3 6 5 6 6 5 1 4 3 4 4 3 4 4 6 6 5 5 5 6 5 5 5 5 7 6 5 5 7 7 5 5 5 5 4 3 3 2 2 3 2 1 2 2
4 1 3 2 1 1 1 3 3 4 4 3 5 6 7 7 6 5 5 5 5 4 4 5 7 7 5 5 5 6 6 5 6 5 4 3 3 2 2 2 2 2 2 2
4 1 2 1 1 3 3 3 3 4 5 6 6 5 6 8 6 5 4 3 3 4 3 4 6 6 5 5 4 4 5 5 5 4 4 3 3 3 2 2 1 2 3 4
3 3 4 5 6 3 4 3 3 5 4 5 6 4 4 5 6 5 4 3 4 4 3 4 4 4 4 4 3 3 4 5 5 4 3 3 3 2 2 2 1 2 1 2
Wind_Direction
322 64 250 241 213 199 208 217 252 240 229 139 178 174 179 181 177 183 183 179 184 189 186 177 172 169 166 166 168 172 171 176 165 161 169 178 207 221 222 219 207 198 203 207
360 259 241 233 228 213 228 237 267 312 154 150 162 201 191 187 190 187 185 186 185 183 179 176 173 171 172 173 175 175 177 178 178 178 178 181 191 212 218 222 215 209 209 213
227 244 246 236 212 219 258 213 225 204 1 127 105 313 237 214 194 191 190 188 182 182 180 179 176 177 175 178 180 181 182 182 183 179 166 166 141 66 237 222 223 223 214 214
249 250 249 242 237 187 242 233 183 167 107 246 162 214 262 206 202 207 194 187 186 184 171 176 176 177 181 185 179 176 179 182 185 179 176 179 189 209 221 215 218 229 220 210
262 257 253 246 236 206 216 211 162 183 151 39 354 145 267 186 197 213 201 192 187 183 173 172 176 180 181 182 179 179 178 186 187 187 186 185 196 211 217 204 201 220 237 221
253 257 220 227 243 214 183 60 36 46 66 7 257 152 263 219 201 200 200 192 181 172 170 171 172 169 175 173 177 178 177 187 187 188 187 188 194 199 200 205 212 227 237 240
291 292 275 231 275 308 94 89 34 1 6 261 264 138 245 232 195 193 194 190 180 171 168 166 168 173 178 175 173 172 176 187 189 189 189 192 195 195 200 205 202 206 225 242
239 284 265 243 194 202 191 138 157 197 219 273 327 220 258 253 188 167 166 172 167 165 167 170 174 178 179 176 171 169 173 183 184 186 192 192 187 192 202 195 186 194 210 225
188 254 271 252 227 160 177 185 171 145 160 147 281 276 313 5 93 120 129 138 151 162 169 170 171 170 169 168 171 171 170 173 179 183 181 182 181 185 188 183 179 186 206 216
169 229 279 285 347 325 166 162 96 116 150 208 264 249 220 197 181 146 142 149 154 159 161 161 165 160 163 166 167 165 170 175 180 180 183 184 189 189 188 179 184 196 207 215
162 179 284 334 218 230 69 82 108 124 149 156 212 257 221 192 180 164 166 166 164 166 164 164 159 157 157 154 160 172 178 176 181 186 185 175 184 188 185 195 208 206 211 209
174 149 233 261 260 213 164 169 140 145 224 165 174 258 258 182 173 163 163 167 168 163 161 162 156 147 148 157 164 169 175 178 184 185 174 169 166 157 177 201 204 195 203 210
139 121 114 330 332 345 37 177 157 140 134 152 166 252 335 125 145 153 153 162 165 160 151 153 156 160 167 173 174 177 175 175 171 162 159 161 169 171 181 199 203 189 185 177
130 118 158 196 225 237 284 293 174 129 158 196 203 202 214 167 170 172 164 159 159 160 154 154 159 167 172 175 177 177 179 177 170 164 167 175 183 188 187 183 177 184 174 164
91 132 176 210 227 211 238 286 294 195 190 186 208 193 204 192 183 180 166 153 148 153 157 162 167 167 166 165 169 173 179 177 170 164 172 184 180 180 180 179 181 185 184 190
65 124 83 339 322 352 343 316 298 261 194 167 155 211 215 182 161 163 166 163 163 166 169 174 175 167 168 171 173 173 177 172 159 161 174 173 161 163 172 181 178 169 183 212
94 112 106 261 313 25 317 264 190 202 208 163 186 213 172 156 173 180 176 171 171 174 172 173 176 177 178 181 175 176 173 159 152 161 170 169 165 169 181 184 159 172 185 209
151 128 139 169 50 229 240 250 152 129 63 137 170 177 175 178 182 187 176 170 171 170 169 177 179 177 177 173 164 162 157 157 157 161 163 167 173 178 172 166 182 193 186 218
156 146 135 137 180 255 289 304 207 144 311 320 158 161 154 131 95 113 198 175 171 171 171 173 173 166 159 158 157 148 152 156 158 165 169 174 173 175 173 185 200 203 198 227
75 113 130 142 167 219 246 271 244 107 304 310 120 150 147 117 138 235 212 162 158 154 155 154 151 143 148 158 150 144 153 160 171 179 181 176 167 170 182 199 211 206 199 224
15 44 138 169 196 241 260 282 59 137 232 275 120 150 152 170 201 200 152 125 139 143 147 145 143 149 159 156 144 147 154 175 185 176 169 169 170 177 185 189 194 187 186 192
184 173 195 158 177 242 280 67 134 197 202 126 110 126 127 123 115 114 117 119 122 123 131 136 139 145 152 153 148 153 169 177 160 149 153 164 176 182 178 173 198 189 168 179
178 187 189 184 205 233 224 135 155 146 124 117 118 122 122 119 121 124 131 127 122 129 140 138 137 135 139 149 151 160 178 161 148 147 159 169 167 167 171 175 193 199 180 184
310 45 99 69 317 325 55 80 79 90 110 129 125 123 127 132 136 134 133 129 130 135 141 138 136 141 153 160 160 170 169 156 150 157 168 171 168 171 170 173 182 188 198 196
260 49 74 74 259 20 356 25 76 74 80 88 90 106 129 128 130 136 134 131 129 126 133 145 150 158 168 167 161 165 157 149 155 166 174 180 180 181 181 177 198 204 215 209
263 189 171 211 219 179 251 272 98 96 102 104 98 80 90 121 129 127 127 132 127 125 125 135 143 149 158 154 156 167 166 157 157 163 178 182 178 183 177 161 354 346 264 242
Height
1503 1509 1515 1511 1508 1509 1512 1517 1519 1513 1506 1511 1515 1516 1515 1515 1517 1519 1520 1522 1524 1526 1529 1531 1533 1536 1538 1540 1542 1544 1545 1547 1549 1550 1551 1552 1553 1554 1554 1555 1555 1555 1556 1556
1510 1513 1502 1499 1500 1504 1508 1516 1516 1511 1505 1510 1516 1517 1514 1514 1515 1516 1518 1519 1521 1525 1528 1530 1532 1534 1536 1538 1540 1542 1544 1545 1547 1548 1550 1551 1552 1553 1553 1553 1554 1554 1554 1554
1511 1504 1495 1498 1500 1505 1508 1513 1513 1514 1510 1510 1518 1524 1519 1515 1516 1517 1517 1518 1520 1521 1524 1527 1529 1531 1534 1536 1538 1540 1542 1544 1545 1547 1549 1550 1550 1551 1551 1552 1552 1552 1553 1553
1502 1495 1494 1497 1501 1502 1512 1502 1503 1508 1518 1528 1522 1541 1525 1518 1517 1516 1516 1517 1518 1520 1521 1524 1527 1530 1532 1534 1537 1539 1540 1542 1544 1546 1547 1548 1548 1549 1549 1550 1550 1551 1551 1551
1501 1494 1495 1498 1497 1496 1501 1495 1500 1506 1518 1527 1525 1536 1530 1518 1520 1516 1514 1515 1516 1518 1519 1521 1524 1527 1530 1532 1535 1537 1538 1540 1542 1544 1545 1546 1547 1547 1548 1548 1549 1549 1549 1549
1494 1489 1489 1490 1488 1489 1492 1498 1505 1514 1525 1540 1528 1535 1533 1520 1514 1512 1511 1512 1514 1515 1518 1520 1523 1526 1528 1530 1532 1535 1537 1538 1540 1541 1543 1544 1545 1545 1546 1546 1546 1547 1547 1547
1499 1491 1486 1485 1491 1491 1495 1517 1538 1543 1551 1545 1526 1530 1527 1506 1503 1505 1507 1510 1512 1514 1516 1518 1521 1524 1526 1528 1529 1532 1535 1536 1538 1539 1541 1541 1542 1543 1543 1543 1543 1544 1544 1544
1512 1510 1489 1484 1489 1496 1497 1512 1538 1550 1553 1544 1528 1531 1517 1500 1499 1501 1505 1507 1509 1512 1514 1516 1518 1521 1523 1525 1527 1530 1532 1534 1536 1537 1538 1539 1540 1540 1540 1540 1541 1541 1542 1542
1509 1507 1484 1480 1480 1485 1498 1507 1509 1529 1536 1544 1537 1525 1512 1501 1501 1503 1505 1506 1508 1509 1511 1513 1516 1519 1522 1524 1526 1528 1530 1532 1533 1535 1536 1537 1538 1538 1538 1538 1538 1539 1539 1540
1492 1503 1489 1481 1480 1482 1487 1495 1514 1528 1544 1550 1540 1532 1526 1510 1505 1504 1505 1505 1506 1508 1509 1511 1514 1517 1519 1522 1524 1527 1528 1530 1531 1532 1534 1535 1535 1536 1536 1536 1536 1537 1537 1537
1484 1500 1496 1489 1490 1492 1492 1497 1508 1523 1529 1545 1550 1537 1504 1503 1500 1502 1503 1503 1504 1506 1508 1510 1513 1515 1518 1520 1522 1525 1526 1528 1529 1530 1531 1532 1532 1533 1533 1533 1534 1534 1534 1534
1481 1496 1505 1495 1483 1478 1484 1492 1504 1522 1528 1532 1539 1531 1495 1496 1497 1499 1501 1502 1504 1505 1507 1509 1511 1514 1517 1519 1520 1522 1524 1525 1527 1528 1529 1529 1530 1530 1531 1531 1531 1531 1531 1531
1480 1497 1515 1511 1500 1488 1487 1488 1494 1505 1519 1529 1536 1525 1497 1497 1497 1498 1500 1501 1503 1505 1507 1510 1511 1513 1515 1516 1518 1520 1521 1523 1524 1525 1526 1527 1528 1528 1528 1528 1528 1528 1528 1528
1474 1494 1507 1515 1508 1496 1492 1488 1488 1501 1518 1522 1519 1513 1503 1499 1498 1498 1498 1499 1501 1504 1505 1508 1510 1512 1513 1515 1516 1518 1519 1521 1522 1523 1524 1525 1525 1526 1526 1526 1526 1526 1526 1526
1476 1492 1492 1492 1487 1486 1487 1487 1486 1493 1499 1508 1507 1505 1499 1495 1494 1496 1497 1498 1500 1503 1505 1506 1508 1510 1511 1513 1514 1516 1517 1518 1520 1521 1521 1522 1523 1524 1524 1524 1524 1524 1524 1524
1479 1489 1490 1491 1484 1485 1487 1485 1484 1486 1488 1494 1497 1499 1490 1490 1492 1494 1495 1497 1498 1501 1503 1505 1507 1508 1510 1511 1512 1514 1515 1516 1517 1518 1519 1520 1520 1521 1522 1522 1522 1522 1522 1522
1484 1490 1499 1502 1491 1489 1499 1488 1485 1487 1485 1488 1496 1493 1488 1490 1491 1491 1493 1494 1496 1498 1500 1502 1504 1506 1507 1509 1510 1511 1512 1513 1514 1515 1516 1517 1518 1518 1519 1520 1520 1520 1520 1520
1482 1491 1501 1504 1500 1511 1497 1479 1478 1482 1483 1482 1483 1483 1483 1484 1487 1489 1490 1492 1493 1495 1497 1499 1501 1503 1504 1506 1508 1510 1511 1512 1512 1513 1514 1514 1515 1516 1516 1517 1517 1517 1518 1517
1473 1485 1499 1508 1510 1504 1490 1479 1479 1483 1488 1481 1481 1481 1482 1483 1486 1489 1490 1490 1490 1492 1494 1496 1498 1499 1501 1503 1505 1507 1508 1510 1511 1511 1512 1512 1513 1513 1514 1514 1514 1514 1514 1514
1473 1478 1493 1503 1506 1510 1493 1476 1473 1479 1491 1481 1480 1480 1481 1482 1491 1489 1486 1487 1489 1490 1492 1494 1496 1497 1499 1501 1503 1504 1506 1507 1508 1509 1509 1510 1511 1511 1511 1511 1511 1511 1511 1511
1485 1487 1493 1499 1502 1496 1481 1473 1473 1492 1493 1481 1480 1480 1481 1481 1483 1484 1484 1486 1488 1489 1491 1492 1494 1496 1497 1499 1501 1502 1503 1505 1506 1507 1507 1508 1508 1509 1509 1509 1509 1509 1508 1508
1488 1493 1495 1498 1502 1499 1476 1474 1480 1483 1479 1478 1479 1479 1480 1480 1481 1482 1483 1485 1487 1488 1490 1491 1493 1494 1496 1498 1499 1500 1501 1502 1503 1504 1505 1505 1506 1506 1506 1506 1506 1506 1505 1505
1483 1484 1487 1488 1489 1478 1474 1474 1476 1476 1476 1477 1478 1479 1479 1480 1482 1483 1483 1484 1485 1487 1488 1490 1491 1492 1494 1496 1497 1497 1498 1499 1500 1501 1501 1502 1502 1502 1503 1503 1503 1502 1502 1501
1478 1476 1480 1483 1480 1476 1475 1475 1476 1476 1476 1477 1477 1478 1479 1479 1481 1482 1483 1483 1484 1485 1487 1488 1489 1490 1491 1493 1494 1494 1495 1496 1496 1497 1498 1498 1499 1499 1499 1500 1500 1499 1499 1499
1478 1477 1481 1482 1480 1477 1476 1476 1476 1476 1477 1478 1478 1479 1479 1479 1480 1482 1482 1483 1483 1484 1486 1487 1487 1488 1489 1490 1491 1492 1492 1493 1493 1494 1494 1494 1495 1495 1495 1496 1496 1496 1496 1496
1476 1477 1480 1482 1478 1478 1477 1477 1477 1477 1478 1478 1479 1480 1479 1479 1480 1481 1482 1482 1483 1483 1485 1485 1485 1486 1487 1488 1489 1489 1489 1490 1490 1490 1490 1490 1491 1492 1492 1492 1492 1492 1493 1492